INTELSAT 10 (IS-10)

Last updated on Thu Nov 21 2024 00:02:40 GMT+0000 (Coordinated Universal Time)

1 26766U 01019A 24324.87956858 -.00000007 00000+0 00000+0 0 9995 2 26766 7.6984 65.0974 0004370 187.0640 189.9681 1.00271274 39866
UTC large
Height (km)
Speed (km/s)
/
Latitude / Longitude
Inclination (degrees)
Orbital Period (minutes)
Azimuth
Elevation
Range (km)
Doppler Factor

Next 0 passes for location: London (51.5072 / 0.1276)

Sorry there are no passes over London.